Location: Trois-Rivi�res
(46.3500°N, 72.5500°W)
Time: 21:23:20
(UTC-04:00)

Daily predictions for brighter satellites

Satellite Brightness Start Highest point End
(mag) Time Altitude Azimuth Time Altitude Azimuth Time Altitude Azimuth
Meteor 2-14 Rocket 4.5 19:51:00 10° S 19:57:10 81° E 20:03:20 10° N
FENGYUN 3A 3.7 19:54:50 10° SSE 20:00:07 64° ENE 20:05:26 10° N
Meteor 1-28 Rocket 4.2 19:56:32 10° N 20:00:17 55° WNW 20:03:59 10° SSW
Cosmos 2084 3.3 19:56:17 10° NW 20:00:19 82° NE 20:04:33 10° SE
HJ-1C 4.4 19:57:18 10° S 20:00:31 49° W 20:03:45 10° NNW
Cosmos 1656 4.1 19:55:33 10° S 20:00:46 41° ESE 20:05:55 10° NE
Cosmos 1626 Rocket 3.7 19:58:43 10° N 20:03:03 53° ENE 20:07:19 10° SSE
H-2A R/B 4.0 20:01:57 10° E 20:03:59 13° ENE 20:06:02 10° NNE
EP 1 4.3 20:03:42 10° SW 20:06:15 80° NW 20:09:01 10° NE
Cosmos 2263 Rocket 4.2 20:03:52 10° N 20:06:19 13° NE 20:08:45 10° ENE
Meteor 1-29 3.3 20:03:54 10° N 20:07:22 71° WNW 20:10:49 10° SSW
Cosmos 1455 Rocket 3.1 20:05:56 10° S 20:10:17 86° W 20:14:41 10° N
Cosmos 220 Rocket 4.0 20:06:46 10° NNW 20:11:00 87° WSW 20:15:13 10° SSE
Cosmos 1975 3.1 20:08:13 10° SSE 20:12:10 49° E 20:16:09 10° NNE
Cosmos 2227 Rocket 3.0 20:07:15 10° NW 20:12:47 56° WSW 20:18:17 10° S
Cosmos 1602 Rocket 3.6 20:08:49 10° N 20:13:17 68° E 20:17:41 10° SSE
Lacrosse 5 rocket 2.9 20:10:16 10° WNW 20:13:30 27° SW 20:16:37 10° S
Tiangong 1 2.0 20:12:40 10° WSW 20:15:34 35° S 20:18:16 11° SE
CZ-2D R/B 3.3 20:16:25 10° SSE 20:20:18 89° W 20:24:14 10° NNW
Cosmos 1500 3.7 20:18:15 10° SSE 20:21:45 38° E 20:25:17 10° NNE
Cosmos 2123 Rocket 4.3 20:15:45 10° NNW 20:21:55 72° W 20:28:03 10° S
Cosmos 1340 3.8 20:23:10 10° NNE 20:26:26 26° ENE 20:29:01 14° ESE
Cosmos 2297 Rocket 2.8 20:22:09 10° NNW 20:27:43 58° WSW 20:33:14 10° S
Helios 1B rocket 4.1 20:25:43 10° N 20:29:34 38° WNW 20:33:22 10° SW
Cosmos 1459 Rocket 4.3 20:25:52 10° SSE 20:31:28 41° E 20:37:10 10° NNE
CZ-4B DEB 4.4 20:30:05 10° SSW 20:33:09 37° W 20:36:16 10° NNW
Meteor 1-12 Rocket 4.4 20:31:41 10° S 20:37:28 87° WNW 20:43:23 10° N
SL-24 R/B - RUBIN 2 4.4 20:31:30 10° SSW 20:37:28 82° SE 20:44:05 10° NE
Iridium 4 Rocket 3.3 20:34:23 10° N 20:39:27 84° E 20:44:02 10° S
Cosmos 1515 3.9 20:39:30 10° NNW 20:43:21 74° W 20:47:10 10° S
Cosmos 2058 Rocket 4.3 20:45:10 18° ESE 20:46:53 23° E 20:50:25 10° NE
Cosmos 1606 Rocket 4.2 20:45:32 12° SSE 20:49:07 35° E 20:53:10 10° NNE
Lacrosse 5 2.3 20:44:46 10° WNW 20:49:44 56° SW 20:53:46 15° SSE
Cosmos 1937 Rocket 3.5 20:44:30 10° NNW 20:49:49 88° WSW 20:54:56 11° SSE
Envisat 3.2 20:46:25 14° SE 20:50:41 55° ENE 20:55:40 10° N
Cosmos 1939 Rocket 3.1 20:48:12 16° SSE 20:51:24 57° ENE 20:55:31 10° N
Resurs 01 Rocket 4.4 20:51:42 10° SW 20:54:46 18° W 20:57:51 10° NW
Cosmos 990 Rocket 4.0 20:53:46 10° NNW 20:59:04 84° ENE 21:03:09 17° SSE
SPOT 5 3.3 20:58:57 22° SE 21:01:43 43° ENE 21:06:11 10° N
Cosmos 1743 2.7 20:59:54 10° S 21:03:46 67° E 21:07:41 10° NNE
Cosmos 1697 Rocket 2.7 20:59:03 10° SSW 21:04:43 87° WNW 21:10:25 10° NNE
SJ-11-01 4.4 21:03:16 11° S 21:07:50 75° WSW 21:12:33 10° NNW
Cosmos 1726 Rocket 3.7 21:09:03 21° SSE 21:11:43 51° E 21:16:00 10° NNE
ERS-1 Rocket 3.1 21:08:33 12° S 21:13:12 75° WSW 21:18:15 10° NNW
Cosmos 1802 Rocket 4.0 21:07:17 10° S 21:13:40 75° E 21:20:06 10° NNE
RESURS DK-1 3.5 21:11:56 10° NW 21:15:49 39° WSW 21:18:51 15° S
H-2A R/B 3.5 21:15:51 18° ENE 21:16:57 19° ENE 21:20:24 10° NNE
SL-16 R/B 3.0 21:16:08 28° ESE 21:16:59 29° ESE 21:21:48 10° NE
ARGOS 3.9 21:16:12 27° ESE 21:18:16 37° ENE 21:23:12 10° N
CZ-4 DEB 4.0 21:19:01 16° SSW 21:21:07 38° W 21:24:06 10° NNW
Terra 3.6 21:20:22 16° ENE 21:21:08 17° ENE 21:24:06 10° NNE
Cosmos 2016 Rocket 3.9 21:15:06 10° S 21:21:12 71° E 21:27:24 10° NNE
Cosmos 1825 Rocket 3.9 21:19:22 10° NNW 21:23:46 65° W 21:26:56 18° S
Cosmos 1763 Rocket 3.3 21:21:19 10° SSW 21:26:24 78° ESE 21:31:30 10° NNE
MetOp-B 4.1 21:25:59 31° SE 21:28:34 68° ENE 21:33:54 10° N
Cosmos 1980 Rocket 2.2 21:23:00 10° SSW 21:28:42 90° NW 21:34:27 10° NNE
Cosmos 2360 Rocket 4.3 21:32:39 11° ENE 21:32:39 11° ENE 21:32:51 10° ENE
Cosmos 2173 Rocket 4.3 21:26:55 10° SSW 21:33:17 72° W 21:39:36 10° N
Cosmos 1953 Rocket 3.8 21:30:57 10° NNW 21:35:24 67° W 21:37:48 26° S
Cosmos 1842 3.1 21:32:06 10° N 21:36:01 89° ENE 21:36:54 53° S
SPOT 1/Viking Rocket 3.8 21:34:23 38° ESE 21:36:03 54° ENE 21:41:07 10° N
Cosmos 2098 Rocket 3.8 21:31:59 14° S 21:37:51 73° E 21:43:17 10° NNE
Cosmos 1125 Rocket 3.4 21:32:47 10° NNW 21:38:01 76° ENE 21:39:49 42° SE
USA 215 3.8 21:34:13 22° E 21:38:20 51° NNE 21:44:37 10° NW
H-2A R/B 2.1 21:37:53 36° S 21:39:28 69° WSW 21:43:38 10° NNW
Nimbus 7 Rocket 4.4 21:33:47 10° NNE 21:39:54 77° ESE 21:45:42 11° S
SL-19 R/B 4.4 21:35:45 10° NNE 21:41:00 46° E 21:41:51 42° SE
Cosmos 2228 2.9 21:43:11 57° ESE 21:43:22 58° E 21:47:36 10° NNE
SWAS 4.3 21:44:01 40° S 21:45:29 72° ESE 21:49:50 10° NNE
Cosmos 1666 2.6 21:45:23 59° SSW 21:46:03 84° W 21:49:53 10° N
USA 245 4.5 21:45:31 36° SSE 21:48:16 76° ENE 21:54:33 10° N
Cosmos 1864 Rocket 4.3 21:46:03 25° S 21:49:44 78° E 21:55:53 10° N
Cosmos 841 Rocket 3.6 21:45:34 10° SSW 21:50:48 76° WNW 21:56:02 10° NNE
Tiangong 1 3.8 21:49:49 10° WSW 21:50:14 11° SW 21:50:14 11° SW
Cosmos 2263 Rocket 2.4 21:46:06 10° NNW 21:51:34 54° ENE 21:52:51 45° ESE
Cosmos 1758 Rocket 4.3 21:49:35 10° NNW 21:53:47 49° W 21:55:33 30° SSW
YAOGAN 6 2.7 21:53:36 67° SW 21:53:49 70° WSW 21:57:33 10° NNW
ASTEX 1 3.5 21:51:28 10° N 21:56:29 74° W 21:58:58 30° SSW
Cosmos 540 Rocket 3.6 21:59:24 53° E 21:59:24 53° E 22:04:10 10° NNE
Tsikada Rocket 4.1 21:52:53 10° N 21:59:20 81° W 22:02:25 33° S
SL-08 RB Rocket 3.7 21:59:58 64° E 22:00:18 67° ENE 22:04:55 10° N
Cosmos 2322 Rocket 2.0 22:00:47 40° S 22:02:48 70° ESE 22:08:24 10° NNE
deb Chang Zheng 4 4.2 21:58:33 10° N 22:02:56 57° WNW 22:05:36 22° SW
Meteor 2-5 Rocket 3.9 22:01:08 10° N 22:07:01 59° ENE 22:07:52 53° ESE
GP-B 4.2 22:03:45 10° NNE 22:06:43 32° NE 22:06:43 32° NE
Meteor 2-17 Rocket 4.3 22:08:23 49° SSE 22:10:01 74° E 22:16:04 10° NNE
Meteor 1-15 Rocket 4.4 22:08:02 26° SSW 22:11:29 77° WNW 22:17:21 10° N
Cosmos 372 Rocket 3.8 22:08:28 10° NNW 22:13:38 86° WSW 22:14:12 71° S
Meteor 1-24 Rocket 4.3 22:12:27 10° N 22:18:14 44° ENE 22:18:34 44° E
Cosmos 1725 Rocket 4.4 22:18:11 21° SSW 22:22:26 61° WNW 22:28:39 10° N
Genesis I 4.1 22:19:11 10° NNW 22:22:11 46° N 22:22:11 46° N
Cosmos 2058 Rocket 4.4 22:22:25 23° SW 22:24:39 38° WNW 22:28:53 10° N
Cosmos 405 Rocket 3.8 22:24:28 10° NNW 22:27:16 42° NW 22:27:16 42° NW
Cosmos 332 Rocket 4.0 22:36:59 66° W 22:37:14 67° WNW 22:42:08 10° NNE
CARTOSAT-1 4.3 22:38:47 50° N 22:38:47 50° N 22:42:03 10° N
CZ-4B R/B 3.5 22:34:26 10° N 22:39:05 71° WNW 22:39:05 71° WNW
Cosmos 371 Rocket 3.8 22:41:02 52° NNE 22:41:02 52° NNE 22:44:42 10° NNE
Cosmos 1072 Rocket 4.5 22:42:02 64° E 22:42:02 64° E 22:47:59 10° NNE
Landsat 7 4.1 22:43:29 65° WNW 22:43:29 65° WNW 22:47:49 10° NNW
Cosmos 2278 Rocket 3.9 22:38:57 10° N 22:43:11 21° NE 22:44:03 20° ENE
Cosmos 2233 Rocket 4.2 22:43:02 44° SW 22:44:56 66° W 22:51:11 10° N
H-2A R/B 2.4 22:56:29 58° WNW 22:56:29 58° WNW 23:00:51 10° NNW
Terra 2.4 22:59:15 55° NW 22:59:15 55° NW 23:03:06 10° NNW
ARGOS 4.3 22:57:44 33° WSW 22:58:31 34° W 23:03:25 10° NNW
SL-16 R/B 3.0 22:57:52 26° WSW 23:00:51 48° WNW 23:06:22 10° NNE
Cosmos 1844 Rocket 3.3 22:57:40 10° NNW 23:02:32 45° NE 23:02:32 45° NE
Cosmos 2034 Rocket 4.1 23:11:46 64° NE 23:11:46 64° NE 23:17:08 10° NNE
Cosmos 2360 Rocket 2.7 23:14:22 55° NNE 23:14:22 55° NNE 23:18:45 10° NNE
BREEZE-M DEB (TANK) 4.4 22:49:25 10° WNW 23:13:41 59° SW 23:14:37 56° SSW
Cosmos 1092 Rocket 4.5 23:14:33 10° N 23:20:04 51° NE 23:20:04 51° NE
USA 215 3.3 23:21:34 68° WSW 23:21:34 68° WSW 23:27:45 10° NW
Cosmos 2219 Rocket 4.1 23:35:33 19° NE 23:35:33 19° NE 23:37:18 10° NE
Cosmos 1464 Rocket 4.3 23:32:35 62° W 23:32:41 62° WNW 23:38:59 10° N
Cosmos 2263 Rocket 3.8 23:30:42 10° NW 23:34:32 24° W 23:34:32 24° W
Nadezhda 4 Rocket 4.2 23:36:35 10° N 23:42:10 69° NNW 23:42:10 69° NNW
Cosmos 2322 Rocket 4.2 23:42:57 10° W 23:47:24 23° NW 23:51:53 10° N
Cosmos 2237 Rocket 4.1 23:57:52 20° NE 23:57:52 20° NE 23:59:49 10° NE
